"Pseudo-MPEC" for P212eRR

Created 2020 Jul 1 18:07:11 UT using Find_Orb

Click here for an explanation of pseudo-MPECs

 
 Astrometry: 
     P212eRR  C2020 06 28*_;^XAstrometryMWhH%kvredacted;Ar1s5ymf=q.n5X)p3/(:hF52
     P212eRR  C2020 06 28/q0Xv.qt?gHTA;t^f(RU`5W1Y@+s.clicknDstu4lIS3qaTf\l,dF52
     P212eRR  C2020 06 28ya%4r67+VvX?j8qw3+C69VbTeN6W5UVv4EIJ\TZ23yikM@XYcoLtF52
     P212eRR  C2020 06 28W__qptL'K`Ltdb(Dtoxv_iJ%H]C=c=NiV3`.f-3Y-juihereio_gF52
     P212eRR KC2020 06 28FD0J#XaFOJ=#9s7Tyta2!AsEpb4@GUfEfjIxQoN!3+forn`v`OwaL01
     P212eRR KC2020 06 28xC4Cmw23xgyD-iG,t4u)?DjpF*EC,explanationau)u?QL+d%r#L01
     P212eRR pC2020 06 28aJf\@1$sUniVR5y9POvKnMRSlWK0Z+K^K-$Ks(yNPh*]W^P-33[.L01

Station data:
(F52) Pan-STARRS 2, Haleakala  (N20.707384 W156.255910)  US/Hawaii. 1.8-m
   Ritchey-Chrétien + CCD.
(L01) Višnjan Observatory, Tičan  (N45.290900 E13.749300)  Croatia.
   Observers K. Korlević, E. Pettarin. Measurer E. Pettarin. 1.0-m f/2.9
   reflector + CCD.

Orbital elements:  P212eRR
   Perihelion 2020 Oct 12.974673 +/- 59.4 TT = 23:23:31 (JD 2459135.474673)
Epoch 2020 Jun 29.0 TT = JDT 2459029.5   Earth MOID: 0.4524   AutoNEOCP
M 335.12779230 +/- 16               (J2000 ecliptic)
n   0.23469954 +/- 0.168            Peri.  104.45301 +/- 56
a   2.60292236 +/- 1.31             Node   251.42908 +/- 15
e   0.4718670 +/- 0.219             Incl.   13.26525 +/- 5.6
P   4.20                   H 20.4   G  0.15   U 11.5  SR
q 1.37468911 +/- 0.399    Q 3.83115561 +/- 14.8
From 7 observations 2020 June 28 (11.6 hr); mean residual 0".14
Residuals in arcseconds: 
200628 F52  .03-  .12-    200628 F52  .02+  .08+    200628 L01  .35+  .07+    
200628 F52  .00   .13-    200628 L01  .19-  .11-    
200628 F52  .02+  .18+    200628 L01  .16-  .03+    

Ephemerides (geocentric):
Date (UTC) HH   RA              Dec         delta   r     elong  mag " sig PA
---- -- -- --  -------------   -----------  ------ ------ -----  --- ---- ---
2020 07 01 18  20 02 04.945   -00 49 53.20  .73580 1.6972 150.8 21.8 88.2  70
2020 07 01 19  20 02 03.763   -00 49 02.48  .73548 1.6970 150.8 21.8 90.7  70
2020 07 01 20  20 02 02.578   -00 48 11.76  .73517 1.6968 150.8 21.8 93.2  70
2020 07 01 21  20 02 01.389   -00 47 21.04  .73486 1.6966 150.8 21.8 95.8  70
2020 07 01 22  20 02 00.198   -00 46 30.32  .73455 1.6963 150.8 21.8 98.4  70
2020 07 01 23  20 01 59.003   -00 45 39.60  .73424 1.6961 150.9 21.8  101  70
2020 07 02 00  20 01 57.805   -00 44 48.87  .73393 1.6959 150.9 21.8  104  70
2020 07 02 01  20 01 56.604   -00 43 58.14  .73362 1.6957 150.9 21.8  106  70
2020 07 02 02  20 01 55.400   -00 43 07.41  .73331 1.6955 150.9 21.8  109  70
2020 07 02 03  20 01 54.193   -00 42 16.68  .73300 1.6953 151.0 21.8  112  70
2020 07 02 04  20 01 52.982   -00 41 25.95  .73269 1.6950 151.0 21.8  115  70
2020 07 02 05  20 01 51.768   -00 40 35.22  .73238 1.6948 151.0 21.8  118  70
2020 07 02 06  20 01 50.551   -00 39 44.48  .73207 1.6946 151.0 21.8  121  70
2020 07 02 07  20 01 49.331   -00 38 53.75  .73177 1.6944 151.0 21.8  123  70
2020 07 02 08  20 01 48.108   -00 38 03.01  .73146 1.6942 151.1 21.8  126  70
2020 07 02 09  20 01 46.882   -00 37 12.27  .73115 1.6940 151.1 21.8  129  70
2020 07 02 10  20 01 45.652   -00 36 21.54  .73084 1.6937 151.1 21.8  132  70
2020 07 02 11  20 01 44.420   -00 35 30.80  .73054 1.6935 151.1 21.8  136  70
2020 07 02 12  20 01 43.184   -00 34 40.06  .73023 1.6933 151.1 21.8  139  70
2020 07 02 13  20 01 41.945   -00 33 49.31  .72992 1.6931 151.2 21.8  142  70
2020 07 02 14  20 01 40.703   -00 32 58.57  .72962 1.6929 151.2 21.8  145  70
2020 07 02 15  20 01 39.457   -00 32 07.83  .72931 1.6927 151.2 21.8  148  70
2020 07 02 16  20 01 38.209   -00 31 17.09  .72901 1.6924 151.2 21.8  152  70
2020 07 02 17  20 01 36.957   -00 30 26.34  .72870 1.6922 151.2 21.8  155  70
2020 07 02 18  20 01 35.703   -00 29 35.60  .72840 1.6920 151.3 21.8  158  70
2020 07 02 19  20 01 34.445   -00 28 44.85  .72809 1.6918 151.3 21.8  162  70
2020 07 02 20  20 01 33.184   -00 27 54.10  .72779 1.6916 151.3 21.8  165  70
2020 07 02 21  20 01 31.920   -00 27 03.36  .72749 1.6914 151.3 21.8  168  70
2020 07 02 22  20 01 30.652   -00 26 12.61  .72718 1.6911 151.3 21.8  172  70
2020 07 02 23  20 01 29.382   -00 25 21.86  .72688 1.6909 151.4 21.8  176  70
2020 07 03 00  20 01 28.108   -00 24 31.12  .72658 1.6907 151.4 21.8  179  70
2020 07 03 01  20 01 26.832   -00 23 40.37  .72627 1.6905 151.4 21.8  183  70
2020 07 03 02  20 01 25.552   -00 22 49.62  .72597 1.6903 151.4 21.8  186  70
2020 07 03 03  20 01 24.269   -00 21 58.87  .72567 1.6901 151.4 21.8  190  70
2020 07 03 04  20 01 22.983   -00 21 08.13  .72537 1.6899 151.5 21.7  194  70
2020 07 03 05  20 01 21.694   -00 20 17.38  .72507 1.6896 151.5 21.7  198  70
2020 07 03 06  20 01 20.402   -00 19 26.63  .72477 1.6894 151.5 21.7  201  70
2020 07 03 07  20 01 19.106   -00 18 35.88  .72446 1.6892 151.5 21.7  205  70
2020 07 03 08  20 01 17.808   -00 17 45.13  .72416 1.6890 151.5 21.7  209  70
2020 07 03 09  20 01 16.506   -00 16 54.39  .72386 1.6888 151.6 21.7  213  70
2020 07 03 10  20 01 15.201   -00 16 03.64  .72356 1.6886 151.6 21.7  217  70
2020 07 03 11  20 01 13.894   -00 15 12.89  .72327 1.6883 151.6 21.7  221  70
2020 07 03 12  20 01 12.583   -00 14 22.15  .72297 1.6881 151.6 21.7  225  70
2020 07 03 13  20 01 11.269   -00 13 31.40  .72267 1.6879 151.6 21.7  229  70
2020 07 03 14  20 01 09.952   -00 12 40.66  .72237 1.6877 151.7 21.7  233  70
2020 07 03 15  20 01 08.632   -00 11 49.91  .72207 1.6875 151.7 21.7  237  70
2020 07 03 16  20 01 07.308   -00 10 59.17  .72177 1.6873 151.7 21.7  241  70
2020 07 03 17  20 01 05.982   -00 10 08.42  .72148 1.6870 151.7 21.7  246  70